This is the latest recevied weather packets stored in our database for station/object KD4EG. If no packets are shown the sender has not sent any weather packets the latest 10 day(s).
| Time | Temp. | Humidity | Pressure | Rain* | Wind** | Luminosity | Snow |
|---|---|---|---|---|---|---|---|
| 1778092140 | 20.56° C | 80% | 1012.9 hPa | 0 mm | - | 214 W/m² | - |
| 1778091837 | 20.56° C | 80% | 1012.6 hPa | 0 mm | - | 195 W/m² | - |
| 1778091534 | 20.56° C | 80% | 1012.7 hPa | 0 mm | - | 232 W/m² | - |
| 1778091233 | 20° C | 81% | 1012.7 hPa | 0 mm | - | 217 W/m² | - |
| 1778090930 | 20° C | 82% | 1012.9 hPa | 0 mm | - | 239 W/m² | - |
| 1778090625 | 19.44° C | 84% | 1012.9 hPa | 0 mm | - | 221 W/m² | - |
| 1778090322 | 19.44° C | 85% | 1012.9 hPa | 0 mm | - | 215 W/m² | - |
| 1778090019 | 18.89° C | 87% | 1012.6 hPa | 0 mm | - | 189 W/m² | - |
| 1778089716 | 18.89° C | 87% | 1012 hPa | 0 mm | - | 167 W/m² | - |
| 1778089413 | 18.89° C | 87% | 1012.2 hPa | 0 mm | - | 152 W/m² | - |
| 1778089111 | 18.89° C | 87% | 1012.9 hPa | 0 mm | - | 152 W/m² | - |
| 1778088807 | 18.89° C | 89% | 1013.2 hPa | 0 mm | - | 157 W/m² | - |
| 1778088505 | 18.89° C | 88% | 1013.4 hPa | 0 mm | - | 169 W/m² | - |
| 1778088201 | 18.33° C | 88% | 1013.5 hPa | 0 mm | - | 170 W/m² | - |
| 1778087898 | 18.89° C | 89% | 1013.9 hPa | 0 mm | - | 191 W/m² | - |
| 1778087595 | 18.33° C | 88% | 1013.9 hPa | 0 mm | - | 197 W/m² | - |
| 1778087293 | 18.33° C | 88% | 1013.9 hPa | 0 mm | - | 168 W/m² | - |
| 1778086989 | 18.33° C | 87% | 1014.1 hPa | 0 mm | - | 161 W/m² | - |
| 1778086688 | 18.89° C | 87% | 1014.1 hPa | 0 mm | - | 144 W/m² | - |
| 1778086385 | 18.89° C | 86% | 1014.2 hPa | 0 mm | - | 122 W/m² | - |
| 1778086082 | 18.89° C | 85% | 1014.2 hPa | 0 mm | - | 140 W/m² | - |
| 1778085779 | 18.89° C | 83% | 1014.1 hPa | 0 mm | - | 119 W/m² | - |
| 1778085475 | 18.89° C | 82% | 1014.3 hPa | 0 mm | - | 143 W/m² | - |
| 1778085170 | 18.89° C | 82% | 1014.3 hPa | 0 mm | - | 162 W/m² | - |
| 1778084866 | 18.89° C | 82% | 1014.5 hPa | 0 mm | - | 159 W/m² | - |
* Rain latest hour (hover to see other rain measurements)
** Current wind speed in m/s (hover to see current wind gust speed)